����������;��������(kWh)
2016-09-12 00:00;102,75
2016-09-12 00:15;97,95
2016-09-12 00:30;96,65
2016-09-12 00:45;96,3
2016-09-12 01:00;94,35
2016-09-12 01:15;91,4
2016-09-12 01:30;89,8
2016-09-12 01:45;92,05
2016-09-12 02:00;90,95
2016-09-12 02:15;88,75
2016-09-12 02:30;91,05
2016-09-12 02:45;89,75
2016-09-12 03:00;87,65
2016-09-12 03:15;93,05
2016-09-12 03:30;89,65
2016-09-12 03:45;86,55
2016-09-12 04:00;91,5
2016-09-12 04:15;89,7
2016-09-12 04:30;87,95
2016-09-12 04:45;86,85
2016-09-12 05:00;88,95
2016-09-12 05:15;88,45
2016-09-12 05:30;89,45
2016-09-12 05:45;92,5
2016-09-12 06:00;90,6
2016-09-12 06:15;88,2
2016-09-12 06:30;94,2
2016-09-12 06:45;90,95
2016-09-12 07:00;90,5
2016-09-12 07:15;97,4
2016-09-12 07:30;91,95
2016-09-12 07:45;102,25
2016-09-12 08:00;114,4
2016-09-12 08:15;118,5
2016-09-12 08:30;121,3
2016-09-12 08:45;124,35
2016-09-12 09:00;130,8
2016-09-12 09:15;147,5
2016-09-12 09:30;154
2016-09-12 09:45;191,35
2016-09-12 10:00;225,55
2016-09-12 10:15;233,65
2016-09-12 10:30;231,85
2016-09-12 10:45;217,95
2016-09-12 11:00;215,9
2016-09-12 11:15;218,55
2016-09-12 11:30;224
2016-09-12 11:45;225,5
2016-09-12 12:00;215
2016-09-12 12:15;282,75
2016-09-12 12:30;266,65
2016-09-12 12:45;240,15
2016-09-12 13:00;239,65
2016-09-12 13:15;247,9
2016-09-12 13:30;228,3
2016-09-12 13:45;225,4
2016-09-12 14:00;219,45
2016-09-12 14:15;212,45
2016-09-12 14:30;214,9
2016-09-12 14:45;208,4
2016-09-12 15:00;213,4
2016-09-12 15:15;210,45
2016-09-12 15:30;204,4
2016-09-12 15:45;203,65
2016-09-12 16:00;200,9
2016-09-12 16:15;191,45
2016-09-12 16:30;188,7
2016-09-12 16:45;190,05
2016-09-12 17:00;187,55
2016-09-12 17:15;168,15
2016-09-12 17:30;163,55
2016-09-12 17:45;165,3
2016-09-12 18:00;182,9
2016-09-12 18:15;214,35
2016-09-12 18:30;195,65
2016-09-12 18:45;171,8
2016-09-12 19:00;170,95
2016-09-12 19:15;174,45
2016-09-12 19:30;165,45
2016-09-12 19:45;160,4
2016-09-12 20:00;160,25
2016-09-12 20:15;145,55
2016-09-12 20:30;136,1
2016-09-12 20:45;135,45
2016-09-12 21:00;126,2
2016-09-12 21:15;131,55
2016-09-12 21:30;130,9
2016-09-12 21:45;120,2
2016-09-12 22:00;115,4
2016-09-12 22:15;118,05
2016-09-12 22:30;113,3
2016-09-12 22:45;114,5
2016-09-12 23:00;121,2
2016-09-12 23:15;114,5
2016-09-12 23:30;113,5
2016-09-12 23:45;114,8
2016-09-13 00:00;115,2
2016-09-13 00:15;114,4
2016-09-13 00:30;118,7
2016-09-13 00:45;112,05
2016-09-13 01:00;101,45
2016-09-13 01:15;110,9
2016-09-13 01:30;110,15
2016-09-13 01:45;104,5
2016-09-13 02:00;108
2016-09-13 02:15;112,1
2016-09-13 02:30;108,95
2016-09-13 02:45;103,5
2016-09-13 03:00;94,35
2016-09-13 03:15;103,35
2016-09-13 03:30;96
2016-09-13 03:45;93,9
2016-09-13 04:00;104,55
2016-09-13 04:15;92,6
2016-09-13 04:30;99,25
2016-09-13 04:45;95,2
2016-09-13 05:00;100,9
2016-09-13 05:15;99,4
2016-09-13 05:30;90,3
2016-09-13 05:45;102,2
2016-09-13 06:00;106,8
2016-09-13 06:15;103,8
2016-09-13 06:30;114
2016-09-13 06:45;100
2016-09-13 07:00;109,7
2016-09-13 07:15;112,6
2016-09-13 07:30;103,15
2016-09-13 07:45;119,95
2016-09-13 08:00;121,8
2016-09-13 08:15;144
2016-09-13 08:30;141,1
2016-09-13 08:45;134,1
2016-09-13 09:00;158,4
2016-09-13 09:15;170,7
2016-09-13 09:30;180
2016-09-13 09:45;186,3
2016-09-13 10:00;191
2016-09-13 10:15;205,6
2016-09-13 10:30;212,3
2016-09-13 10:45;210,6
2016-09-13 11:00;214,55
2016-09-13 11:15;227,7
2016-09-13 11:30;217,8
2016-09-13 11:45;231,15
2016-09-13 12:00;227
2016-09-13 12:15;229,3
2016-09-13 12:30;215,25
2016-09-13 12:45;218,65
2016-09-13 13:00;228,35
2016-09-13 13:15;224,5
2016-09-13 13:30;214,3
2016-09-13 13:45;222,45
2016-09-13 14:00;219,25
2016-09-13 14:15;216,4
2016-09-13 14:30;214,65
2016-09-13 14:45;210,65
2016-09-13 15:00;213,3
2016-09-13 15:15;212,35
2016-09-13 15:30;208,7
2016-09-13 15:45;205,1
2016-09-13 16:00;190,3
2016-09-13 16:15;198,8
2016-09-13 16:30;171,25
2016-09-13 16:45;164,5
2016-09-13 17:00;162,95
2016-09-13 17:15;158,5
2016-09-13 17:30;151,55
2016-09-13 17:45;145,75
2016-09-13 18:00;146,2
2016-09-13 18:15;148,1
2016-09-13 18:30;137,6
2016-09-13 18:45;138,8
2016-09-13 19:00;139,1
2016-09-13 19:15;133,35
2016-09-13 19:30;132,95
2016-09-13 19:45;123,85
2016-09-13 20:00;126,3
2016-09-13 20:15;124,05
2016-09-13 20:30;116,75
2016-09-13 20:45;117
2016-09-13 21:00;123,55
2016-09-13 21:15;117,05
2016-09-13 21:30;114,45
2016-09-13 21:45;113,7
2016-09-13 22:00;107,7
2016-09-13 22:15;107,1
2016-09-13 22:30;104,15
2016-09-13 22:45;103,5
2016-09-13 23:00;100,65
2016-09-13 23:15;102,9
2016-09-13 23:30;105,3
2016-09-13 23:45;102
2016-09-14 00:00;98,75
2016-09-14 00:15;99,05
2016-09-14 00:30;96,7
2016-09-14 00:45;92,15
2016-09-14 01:00;89,15
2016-09-14 01:15;88,65
2016-09-14 01:30;87,8
2016-09-14 01:45;88,45
2016-09-14 02:00;88,2
2016-09-14 02:15;85,8
2016-09-14 02:30;84,7
2016-09-14 02:45;85,4
2016-09-14 03:00;84,3
2016-09-14 03:15;83,25
2016-09-14 03:30;84,9
2016-09-14 03:45;83,5
2016-09-14 04:00;83,15
2016-09-14 04:15;83,95
2016-09-14 04:30;84,85
2016-09-14 04:45;82,75
2016-09-14 05:00;83,15
2016-09-14 05:15;86,1
2016-09-14 05:30;84,95
2016-09-14 05:45;87,5
2016-09-14 06:00;93,15
2016-09-14 06:15;99,45
2016-09-14 06:30;101,3
2016-09-14 06:45;97,75
2016-09-14 07:00;105,2
2016-09-14 07:15;110,2
2016-09-14 07:30;98,6
2016-09-14 07:45;144,6
2016-09-14 08:00;120,7
2016-09-14 08:15;124,1
2016-09-14 08:30;129,3
2016-09-14 08:45;140,5
2016-09-14 09:00;145,1
2016-09-14 09:15;145,5
2016-09-14 09:30;155,95
2016-09-14 09:45;166,6
2016-09-14 10:00;171,85
2016-09-14 10:15;169,1
2016-09-14 10:30;180,05
2016-09-14 10:45;223,3
2016-09-14 11:00;225,45
2016-09-14 11:15;201,2
2016-09-14 11:30;211,5
2016-09-14 11:45;214,25
2016-09-14 12:00;217,95
2016-09-14 12:15;224,85
2016-09-14 12:30;229,7
2016-09-14 12:45;221,7
2016-09-14 13:00;226,25
2016-09-14 13:15;228,55
2016-09-14 13:30;228,4
2016-09-14 13:45;235,8
2016-09-14 14:00;232,65
2016-09-14 14:15;219,5
2016-09-14 14:30;219,2
2016-09-14 14:45;217,25
2016-09-14 15:00;211,8
2016-09-14 15:15;202,65
2016-09-14 15:30;198,3
2016-09-14 15:45;206,7
2016-09-14 16:00;188,9
2016-09-14 16:15;183,6
2016-09-14 16:30;181,4
2016-09-14 16:45;195,35
2016-09-14 17:00;170,75
2016-09-14 17:15;162,4
2016-09-14 17:30;161,65
2016-09-14 17:45;159,25
2016-09-14 18:00;146,1
2016-09-14 18:15;151
2016-09-14 18:30;153,15
2016-09-14 18:45;151,65
2016-09-14 19:00;140,75
2016-09-14 19:15;133,35
2016-09-14 19:30;131,3
2016-09-14 19:45;128,75
2016-09-14 20:00;123,8
2016-09-14 20:15;121,6
2016-09-14 20:30;117,55
2016-09-14 20:45;110,5
2016-09-14 21:00;110
2016-09-14 21:15;109,3
2016-09-14 21:30;102,9
2016-09-14 21:45;103,6
2016-09-14 22:00;98,7
2016-09-14 22:15;94,15
2016-09-14 22:30;93,45
2016-09-14 22:45;96,8
2016-09-14 23:00;95,3
2016-09-14 23:15;92,2
2016-09-14 23:30;89,15
2016-09-14 23:45;90,9
2016-09-15 00:00;91,15
2016-09-15 00:15;95,6
2016-09-15 00:30;96,7
2016-09-15 00:45;93,65
2016-09-15 01:00;87,65
2016-09-15 01:15;87,1
2016-09-15 01:30;85,9
2016-09-15 01:45;86,85
2016-09-15 02:00;88
2016-09-15 02:15;85
2016-09-15 02:30;86,5
2016-09-15 02:45;85,65
2016-09-15 03:00;85,25
2016-09-15 03:15;86,8
2016-09-15 03:30;85,1
2016-09-15 03:45;85,35
2016-09-15 04:00;85,15
2016-09-15 04:15;83,05
2016-09-15 04:30;83,8
2016-09-15 04:45;85,95
2016-09-15 05:00;83,75
2016-09-15 05:15;84,2
2016-09-15 05:30;85,15
2016-09-15 05:45;92
2016-09-15 06:00;92,6
2016-09-15 06:15;98,3
2016-09-15 06:30;100,05
2016-09-15 06:45;95,6
2016-09-15 07:00;93,95
2016-09-15 07:15;105,05
2016-09-15 07:30;100,85
2016-09-15 07:45;160,85
2016-09-15 08:00;162,5
2016-09-15 08:15;130,3
2016-09-15 08:30;152,35
2016-09-15 08:45;156,3
2016-09-15 09:00;157,45
2016-09-15 09:15;159,6
2016-09-15 09:30;173,45
2016-09-15 09:45;171,65
2016-09-15 10:00;176,75
2016-09-15 10:15;186,85
2016-09-15 10:30;185,5
2016-09-15 10:45;206,35
2016-09-15 11:00;212,8
2016-09-15 11:15;199,35
2016-09-15 11:30;207,5
2016-09-15 11:45;209,85
2016-09-15 12:00;206,95
2016-09-15 12:15;206,15
2016-09-15 12:30;211,25
2016-09-15 12:45;211,3
2016-09-15 13:00;202,9
2016-09-15 13:15;207,85
2016-09-15 13:30;207,1
2016-09-15 13:45;218,05
2016-09-15 14:00;213,9
2016-09-15 14:15;214,15
2016-09-15 14:30;206,05
2016-09-15 14:45;217,75
2016-09-15 15:00;220,35
2016-09-15 15:15;212,75
2016-09-15 15:30;211,6
2016-09-15 15:45;212,2
2016-09-15 16:00;213,45
2016-09-15 16:15;202,45
2016-09-15 16:30;204,75
2016-09-15 16:45;185,1
2016-09-15 17:00;167,25
2016-09-15 17:15;158,95
2016-09-15 17:30;159,65
2016-09-15 17:45;149,9
2016-09-15 18:00;146,2
2016-09-15 18:15;146,35
2016-09-15 18:30;141
2016-09-15 18:45;143,2
2016-09-15 19:00;140,2
2016-09-15 19:15;144,45
2016-09-15 19:30;137,4
2016-09-15 19:45;139,05
2016-09-15 20:00;125,1
2016-09-15 20:15;122,9
2016-09-15 20:30;120,9
2016-09-15 20:45;126,8
2016-09-15 21:00;131,2
2016-09-15 21:15;126,65
2016-09-15 21:30;128,5
2016-09-15 21:45;116,85
2016-09-15 22:00;110,55
2016-09-15 22:15;107,65
2016-09-15 22:30;105,1
2016-09-15 22:45;104,45
2016-09-15 23:00;104,2
2016-09-15 23:15;99,35
2016-09-15 23:30;99
2016-09-15 23:45;99,75
2016-09-16 00:00;98,15
2016-09-16 00:15;97,55
2016-09-16 00:30;98,5
2016-09-16 00:45;92,9
2016-09-16 01:00;87,95
2016-09-16 01:15;87,75
2016-09-16 01:30;89,25
2016-09-16 01:45;86,5
2016-09-16 02:00;86,15
2016-09-16 02:15;89,8
2016-09-16 02:30;86,55
2016-09-16 02:45;87,4
2016-09-16 03:00;87,2
2016-09-16 03:15;86,95
2016-09-16 03:30;87,55
2016-09-16 03:45;86,95
2016-09-16 04:00;86,8
2016-09-16 04:15;87,45
2016-09-16 04:30;87,35
2016-09-16 04:45;85,65
2016-09-16 05:00;86,8
2016-09-16 05:15;86,6
2016-09-16 05:30;90,5
2016-09-16 05:45;88,85
2016-09-16 06:00;97
2016-09-16 06:15;101,05
2016-09-16 06:30;100,65
2016-09-16 06:45;100,95
2016-09-16 07:00;96,25
2016-09-16 07:15;94,85
2016-09-16 07:30;99,25
2016-09-16 07:45;154,8
2016-09-16 08:00;121,35
2016-09-16 08:15;128,1
2016-09-16 08:30;139,7
2016-09-16 08:45;146,25
2016-09-16 09:00;154,25
2016-09-16 09:15;165,7
2016-09-16 09:30;164
2016-09-16 09:45;162,55
2016-09-16 10:00;167,05
2016-09-16 10:15;184,5
2016-09-16 10:30;190,95
2016-09-16 10:45;197,4
2016-09-16 11:00;202,05
2016-09-16 11:15;209,05
2016-09-16 11:30;203,55
2016-09-16 11:45;204,45
2016-09-16 12:00;205,05
2016-09-16 12:15;204,6
2016-09-16 12:30;204,6
2016-09-16 12:45;213,55
2016-09-16 13:00;210,95
2016-09-16 13:15;212,3
2016-09-16 13:30;212,5
2016-09-16 13:45;244,7
2016-09-16 14:00;251,2
2016-09-16 14:15;219,65
2016-09-16 14:30;233,45
2016-09-16 14:45;223,5
2016-09-16 15:00;222,05
2016-09-16 15:15;219,5
2016-09-16 15:30;216,05
2016-09-16 15:45;211,65
2016-09-16 16:00;192,65
2016-09-16 16:15;207,85
2016-09-16 16:30;192,1
2016-09-16 16:45;188,05
2016-09-16 17:00;186,2
2016-09-16 17:15;170,4
2016-09-16 17:30;154,4
2016-09-16 17:45;151,55
2016-09-16 18:00;151,8
2016-09-16 18:15;147,15
2016-09-16 18:30;140,7
2016-09-16 18:45;138,6
2016-09-16 19:00;128,05
2016-09-16 19:15;123,8
2016-09-16 19:30;118,8
2016-09-16 19:45;126,65
2016-09-16 20:00;121,3
2016-09-16 20:15;113,75
2016-09-16 20:30;112,8
2016-09-16 20:45;115,6
2016-09-16 21:00;111,65
2016-09-16 21:15;112,35
2016-09-16 21:30;109,9
2016-09-16 21:45;104,65
2016-09-16 22:00;102,65
2016-09-16 22:15;99,45
2016-09-16 22:30;103,1
2016-09-16 22:45;103,8
2016-09-16 23:00;105,6
2016-09-16 23:15;103,5
2016-09-16 23:30;94,9
2016-09-16 23:45;92,3
2016-09-17 00:00;91,3
2016-09-17 00:15;91,15
2016-09-17 00:30;88,85
2016-09-17 00:45;91,7
2016-09-17 01:00;91,15
2016-09-17 01:15;84,65
2016-09-17 01:30;83,2
2016-09-17 01:45;85,1
2016-09-17 02:00;83,7
2016-09-17 02:15;84,1
2016-09-17 02:30;81,85
2016-09-17 02:45;84,6
2016-09-17 03:00;82,3
2016-09-17 03:15;81,85
2016-09-17 03:30;84,35
2016-09-17 03:45;81,95
2016-09-17 04:00;81,5
2016-09-17 04:15;83,15
2016-09-17 04:30;81,45
2016-09-17 04:45;82,1
2016-09-17 05:00;82,8
2016-09-17 05:15;82,85
2016-09-17 05:30;80,95
2016-09-17 05:45;82,45
2016-09-17 06:00;88,35
2016-09-17 06:15;85,6
2016-09-17 06:30;86,7
2016-09-17 06:45;87,5
2016-09-17 07:00;84,65
2016-09-17 07:15;85,75
2016-09-17 07:30;82,05
2016-09-17 07:45;79,2
2016-09-17 08:00;80,05
2016-09-17 08:15;80,3
2016-09-17 08:30;85,15
2016-09-17 08:45;77,95
2016-09-17 09:00;82,8
2016-09-17 09:15;82,9
2016-09-17 09:30;84,95
2016-09-17 09:45;85,6
2016-09-17 10:00;84,15
2016-09-17 10:15;90,4
2016-09-17 10:30;92,15
2016-09-17 10:45;91,2
2016-09-17 11:00;92
2016-09-17 11:15;86,2
2016-09-17 11:30;94,2
2016-09-17 11:45;93,65
2016-09-17 12:00;94,5
2016-09-17 12:15;95,7
2016-09-17 12:30;90,55
2016-09-17 12:45;90,45
2016-09-17 13:00;90,5
2016-09-17 13:15;92,15
2016-09-17 13:30;88,15
2016-09-17 13:45;88,45
2016-09-17 14:00;87,6
2016-09-17 14:15;88,45
2016-09-17 14:30;90,6
2016-09-17 14:45;84,3
2016-09-17 15:00;89,1
2016-09-17 15:15;92,4
2016-09-17 15:30;94,05
2016-09-17 15:45;89,8
2016-09-17 16:00;87,95
2016-09-17 16:15;92,3
2016-09-17 16:30;90,15
2016-09-17 16:45;89,45
2016-09-17 17:00;96,35
2016-09-17 17:15;89,35
2016-09-17 17:30;90,15
2016-09-17 17:45;89,5
2016-09-17 18:00;102
2016-09-17 18:15;102,55
2016-09-17 18:30;100,85
2016-09-17 18:45;102,75
2016-09-17 19:00;101,55
2016-09-17 19:15;104,2
2016-09-17 19:30;95,3
2016-09-17 19:45;96,65
2016-09-17 20:00;99,35
2016-09-17 20:15;94,9
2016-09-17 20:30;96,35
2016-09-17 20:45;98,3
2016-09-17 21:00;94,9
2016-09-17 21:15;94,9
2016-09-17 21:30;108,35
2016-09-17 21:45;108,6
2016-09-17 22:00;102,15
2016-09-17 22:15;102,3
2016-09-17 22:30;105,55
2016-09-17 22:45;109,6
2016-09-17 23:00;111,5
2016-09-17 23:15;105
2016-09-17 23:30;101,4
2016-09-17 23:45;99,05
2016-09-18 00:00;100,9
2016-09-18 00:15;100,1
2016-09-18 00:30;98,2
2016-09-18 00:45;99,15
2016-09-18 01:00;96,8
2016-09-18 01:15;98,6
2016-09-18 01:30;94,95
2016-09-18 01:45;97
2016-09-18 02:00;95,1
2016-09-18 02:15;95,55
2016-09-18 02:30;94,7
2016-09-18 02:45;93,6
2016-09-18 03:00;94,35
2016-09-18 03:15;94,15
2016-09-18 03:30;95,15
2016-09-18 03:45;93,45
2016-09-18 04:00;93,85
2016-09-18 04:15;93,6
2016-09-18 04:30;93,6
2016-09-18 04:45;92,8
2016-09-18 05:00;94,6
2016-09-18 05:15;82,1
2016-09-18 05:30;83,1
2016-09-18 05:45;82,5
2016-09-18 06:00;88,5
2016-09-18 06:15;87,9
2016-09-18 06:30;93,05
2016-09-18 06:45;95,6
2016-09-18 07:00;92,6
2016-09-18 07:15;92,55
2016-09-18 07:30;91,95
2016-09-18 07:45;90,3
2016-09-18 08:00;84,1
2016-09-18 08:15;81,35
2016-09-18 08:30;80,5
2016-09-18 08:45;84,65
2016-09-18 09:00;83,85
2016-09-18 09:15;87,4
2016-09-18 09:30;83,5
2016-09-18 09:45;88,05
2016-09-18 10:00;91,7
2016-09-18 10:15;94,8
2016-09-18 10:30;94,05
2016-09-18 10:45;89,95
2016-09-18 11:00;88,55
2016-09-18 11:15;99,2
2016-09-18 11:30;101,6
2016-09-18 11:45;96,85
2016-09-18 12:00;94,8
2016-09-18 12:15;95
2016-09-18 12:30;97,55
2016-09-18 12:45;100,4
2016-09-18 13:00;100,5
2016-09-18 13:15;101,6
2016-09-18 13:30;102,4
2016-09-18 13:45;107,15
2016-09-18 14:00;104,35
2016-09-18 14:15;108,1
2016-09-18 14:30;106,9
2016-09-18 14:45;107,6
2016-09-18 15:00;112,05
2016-09-18 15:15;106,15
2016-09-18 15:30;105,05
2016-09-18 15:45;104,5
2016-09-18 16:00;108,55
2016-09-18 16:15;102,9
2016-09-18 16:30;106,6
2016-09-18 16:45;109,85
2016-09-18 17:00;108,5
2016-09-18 17:15;106,45
2016-09-18 17:30;111,85
2016-09-18 17:45;108,15
2016-09-18 18:00;108,5
2016-09-18 18:15;104,7
2016-09-18 18:30;101,55
2016-09-18 18:45;105,15
2016-09-18 19:00;101,95
2016-09-18 19:15;107
2016-09-18 19:30;103,35
2016-09-18 19:45;105
2016-09-18 20:00;100,35
2016-09-18 20:15;103,05
2016-09-18 20:30;99,9
2016-09-18 20:45;97,15
2016-09-18 21:00;98,45
2016-09-18 21:15;97,9
2016-09-18 21:30;102
2016-09-18 21:45;98,8
2016-09-18 22:00;94,85
2016-09-18 22:15;96,45
2016-09-18 22:30;96,85
2016-09-18 22:45;101
2016-09-18 23:00;99,25
2016-09-18 23:15;97,45
2016-09-18 23:30;90,55
2016-09-18 23:45;92

